Вернуться в каталог

STARLINK-35039

АктивенСвязьSSO
NORAD 65451·PAYLOAD·🇺🇸 United States

Запущен Sep 3, 2025 с Vandenberg Space Force Base

Loading…

Ближайшие Пролёты (ближайшие 24 часа)

TLE

СвежийSource: CelesTrak SupGP

Эпоха: Sep 15, 2026, 02:29 UTC

1 65451C 25194T   26258.10395833 -.00008697  00000+0 -26996-3 0  2581
2 65451  97.2843 107.8276 0001734  92.1819 180.0241 15.33445187    10

Отслеживайте STARLINK-35039 в реальном времени с AllMySat

Download on the App Store